Date String (YYYY-MM-DD hh:mm:ss) UTC,Instrument flags,absolute air pressure of the measurement (hPa),sample flow rate (lpm),inlet stack bypass flow (lpm),air temperature of the measurement (°C),ambient temperature measured by the external sensor (°C),aerosol sample conditioner tube jacket temperature (°C),OPC LED temperature (°C),internal box temperature (°C),relative humidity of the measurement (%),span deviation,mass concentration of particles derived from Lorenz-Mie calculation of OPC scattering (μg/m³),mass concentration of particles derived from Lorenz-Mie calculation of OPC scattering (μg/m³),mass concentration of particles derived from Lorenz-Mie calculation of OPC scattering (μg/m³)
DateTimeUTC,F1_M11,P_M11,Q1_M11,Q2_M11,T1_M11,T2_M11,T3_M11,T4_M11,T5_M11,U1_M11,ZSPAN_M11,X2_M11,X0_M11,X1_M11
2023-11-25 10:00:00,SystemResetWarning,0827.8,4.99,000.00,019.3,019.3,000.0,027.5,020.6,10.5,0000.0,0004.67,0006.60,0004.45
2023-11-25 10:01:00,SystemResetWarning,0827.8,4.99,000.00,019.3,019.1,000.0,027.6,020.5,10.5,0000.0,0004.65,0006.53,0004.43
2023-11-25 10:02:00,SystemResetWarning,0827.8,5.01,000.00,019.3,019.0,000.0,027.6,020.4,10.5,0000.0,0004.62,0006.46,0004.41
2023-11-25 10:03:00,SystemResetWarning,0827.8,5.02,000.00,019.3,018.8,000.0,027.6,020.3,10.5,0000.0,0004.60,0006.37,0004.39
2023-11-25 10:04:00,SystemResetWarning,0827.8,5.00,000.00,019.2,018.7,000.0,027.6,020.2,10.6,0000.0,0004.58,0006.35,0004.37
2023-11-25 10:05:00,SystemResetWarning,0827.7,4.99,000.00,019.2,018.6,000.0,027.5,020.2,10.6,0000.0,0004.61,0006.57,0004.36
2023-11-25 10:06:00,SystemResetWarning,0827.8,4.99,000.00,019.1,018.5,000.0,027.5,020.2,10.6,0000.0,0004.61,0006.60,0004.35
2023-11-25 10:07:00,SystemResetWarning,0827.8,5.01,000.00,019.1,018.4,000.0,027.5,020.2,10.6,0000.0,0004.58,0006.42,0004.33
2023-11-25 10:08:00,SystemResetWarning,0828.0,5.01,000.00,019.1,018.4,000.0,027.5,020.2,10.6,0000.0,0004.55,0006.31,0004.32
2023-11-25 10:09:00,SystemResetWarning,0828.1,5.00,000.00,019.1,018.3,000.0,027.5,020.3,10.6,0000.0,0004.55,0006.31,0004.31
2023-11-25 10:10:00,SystemResetWarning,0828.1,5.00,000.00,019.1,018.3,000.0,027.5,020.2,10.6,0000.0,0004.54,0006.29,0004.30
2023-11-25 10:11:00,SystemResetWarning,0828.2,5.00,000.00,019.1,018.5,000.0,027.4,020.6,10.6,0000.0,0004.55,0006.35,0004.30
2023-11-25 10:12:00,SystemResetWarning,0828.3,5.00,000.00,019.3,019.2,000.0,027.5,021.1,10.5,0000.0,0004.57,0006.44,0004.31
2023-11-25 10:13:00,SystemResetWarning,0828.3,4.98,000.00,019.4,019.5,000.0,027.5,021.1,10.4,0000.0,0004.61,0006.63,0004.33
2023-11-25 10:14:00,SystemResetWarning,0828.3,5.00,000.00,019.4,019.4,000.0,027.5,020.9,10.4,0000.0,0004.65,0006.72,0004.36
2023-11-25 10:15:00,SystemResetWarning,0828.3,5.00,000.00,019.4,019.3,000.0,027.5,020.6,10.4,0000.0,0004.68,0006.79,0004.39
2023-11-25 10:16:00,SystemResetWarning,0828.3,5.00,000.00,019.3,019.1,000.0,027.5,020.5,10.4,0000.0,0004.69,0006.74,0004.42
2023-11-25 10:17:00,SystemResetWarning,0828.3,5.00,000.00,019.3,018.9,000.0,027.5,020.5,10.5,0000.0,0004.69,0006.69,0004.44
2023-11-25 10:18:00,SystemResetWarning,0828.3,5.00,000.00,019.3,018.8,000.0,027.5,020.4,10.5,0000.0,0004.75,0006.91,0004.46
2023-11-25 10:19:00,SystemResetWarning,0828.2,5.00,000.00,019.2,018.7,000.0,027.6,020.3,10.5,0000.0,0004.79,0007.05,0004.48
2023-11-25 10:20:00,SystemResetWarning,0828.2,5.01,000.00,019.2,018.6,000.0,027.5,020.4,10.5,0000.0,0004.79,0007.04,0004.48
2023-11-25 10:21:00,SystemResetWarning,0828.2,4.99,000.00,019.2,018.5,000.0,027.5,020.3,10.5,0000.0,0004.78,0007.00,0004.48
2023-11-25 10:22:00,SystemResetWarning,0828.2,5.00,000.00,019.2,018.5,000.0,027.5,020.3,10.5,0000.0,0004.78,0007.02,0004.48
2023-11-25 10:23:00,SystemResetWarning,0828.3,4.98,000.00,019.1,018.4,000.0,027.5,020.2,10.5,0000.0,0004.76,0006.94,0004.47
2023-11-25 10:24:00,SystemResetWarning,0828.3,5.02,000.00,019.1,018.3,000.0,027.5,020.2,10.5,0000.0,0004.75,0006.94,0004.46
2023-11-25 10:25:00,SystemResetWarning,0828.3,5.01,000.00,019.1,018.3,000.0,027.5,020.2,10.5,0000.0,0004.72,0006.99,0004.43
2023-11-25 10:26:00,SystemResetWarning,0828.3,4.99,000.00,019.1,018.2,000.0,027.5,020.2,10.5,0000.0,0004.70,0007.01,0004.40
2023-11-25 10:27:00,SystemResetWarning,0828.2,4.99,000.00,019.1,018.2,000.0,027.5,020.2,10.5,0000.0,0004.66,0006.89,0004.37
2023-11-25 10:28:00,SystemResetWarning,0828.3,5.01,000.00,019.1,018.2,000.0,027.4,020.3,10.5,0000.0,0004.64,0006.91,0004.34
2023-11-25 10:29:00,SystemResetWarning,0828.3,5.01,000.00,019.1,018.6,000.0,027.4,020.8,10.4,0000.0,0004.59,0006.73,0004.32
2023-11-25 10:30:00,SystemResetWarning,0828.3,5.00,000.00,019.3,019.4,000.0,027.5,021.2,10.4,0000.0,0004.57,0006.78,0004.30
2023-11-25 10:31:00,SystemResetWarning,0828.3,5.00,000.00,019.4,019.4,000.0,027.5,021.0,10.3,0000.0,0004.56,0006.86,0004.29
2023-11-25 10:32:00,SystemResetWarning,0828.3,4.99,000.00,019.3,019.3,000.0,027.5,020.7,10.3,0000.0,0004.55,0006.86,0004.28
2023-11-25 10:33:00,SystemResetWarning,0828.2,5.01,000.00,019.3,019.1,000.0,027.5,020.5,10.3,0000.0,0004.55,0006.87,0004.27
2023-11-25 10:34:00,SystemResetWarning,0828.2,5.00,000.00,019.3,018.9,000.0,027.5,020.4,10.4,0000.0,0004.55,0006.88,0004.27
2023-11-25 10:35:00,SystemResetWarning,0828.1,5.01,000.00,019.2,018.8,000.0,027.5,020.3,10.4,0000.0,0004.54,0006.70,0004.26
2023-11-25 10:36:00,SystemResetWarning,0828.1,5.00,000.00,019.2,018.7,000.0,027.5,020.2,10.4,0000.0,0004.51,0006.54,0004.25
2023-11-25 10:37:00,SystemResetWarning,0828.1,5.00,000.00,019.2,018.6,000.0,027.5,020.3,10.4,0000.0,0004.49,0006.41,0004.24
2023-11-25 10:38:00,SystemResetWarning,0828.1,4.99,000.00,019.2,018.5,000.0,027.5,020.3,10.4,0000.0,0004.51,0006.50,0004.24
2023-11-25 10:39:00,SystemResetWarning,0828.1,4.99,000.00,019.2,018.4,000.0,027.5,020.3,10.4,0000.0,0004.50,0006.43,0004.24
2023-11-25 10:40:00,SystemResetWarning,0828.1,4.99,000.00,019.1,018.4,000.0,027.5,020.3,10.4,0000.0,0004.52,0006.51,0004.25
2023-11-25 10:41:00,SystemResetWarning,0827.9,5.01,000.00,019.1,018.3,000.0,027.5,020.3,10.4,0000.0,0004.51,0006.52,0004.25
2023-11-25 10:42:00,SystemResetWarning,0827.9,5.00,000.00,019.1,018.2,000.0,027.5,020.2,10.4,0000.0,0004.49,0006.42,0004.25
2023-11-25 10:43:00,SystemResetWarning,0827.9,5.01,000.00,019.1,018.2,000.0,027.4,020.2,10.4,0000.0,0004.47,0006.61,0004.21
2023-11-25 10:44:00,SystemResetWarning,0827.8,5.01,000.00,019.1,018.2,000.0,027.4,020.3,10.4,0000.0,0004.44,0006.51,0004.20
2023-11-25 10:45:00,SystemResetWarning,0827.9,5.00,000.00,019.1,018.7,000.0,027.4,020.8,10.4,0000.0,0004.40,0006.50,0004.18
2023-11-25 10:46:00,SystemResetWarning,0828.1,5.00,000.00,019.3,019.4,000.0,027.4,021.2,10.3,0000.0,0004.37,0006.56,0004.16
2023-11-25 10:47:00,SystemResetWarning,0828.1,5.00,000.00,019.4,019.4,000.0,027.5,021.0,10.2,0000.0,0004.38,0006.67,0004.15
2023-11-25 10:48:00,SystemResetWarning,0828.1,5.00,000.00,019.3,019.3,000.0,027.5,020.7,10.2,0000.0,0004.40,0006.81,0004.15
2023-11-25 10:49:00,SystemResetWarning,0828.1,5.01,000.00,019.3,019.1,000.0,027.5,020.5,10.2,0000.0,0004.41,0007.14,0004.15
2023-11-25 10:50:00,SystemResetWarning,0828.1,5.00,000.00,019.3,018.9,000.0,027.5,020.4,10.2,0000.0,0004.43,0007.29,0004.15
2023-11-25 10:51:00,SystemResetWarning,0827.9,5.00,000.00,019.2,018.8,000.0,027.5,020.4,10.3,0000.0,0004.41,0007.27,0004.13
2023-11-25 10:52:00,SystemResetWarning,0827.8,5.01,000.00,019.2,018.7,000.0,027.5,020.4,10.3,0000.0,0004.40,0007.21,0004.12
2023-11-25 10:53:00,SystemResetWarning,0827.8,4.99,000.00,019.2,018.6,000.0,027.5,020.4,10.3,0000.0,0004.40,0007.14,0004.10
2023-11-25 10:54:00,SystemResetWarning,0827.8,5.00,000.00,019.2,018.5,000.0,027.5,020.4,10.3,0000.0,0004.40,0007.91,0004.10
2023-11-25 10:55:00,SystemResetWarning,0827.9,5.00,000.00,019.2,018.5,000.0,027.5,020.4,10.3,0000.0,0004.39,0008.08,0004.09
2023-11-25 10:56:00,SystemResetWarning,0827.8,4.99,000.00,019.2,018.4,000.0,027.5,020.4,10.3,0000.0,0004.36,0007.96,0004.08
2023-11-25 10:57:00,SystemResetWarning,0827.8,5.00,000.00,019.1,018.4,000.0,027.5,020.3,10.3,0000.0,0004.34,0007.91,0004.07
2023-11-25 10:58:00,SystemResetWarning,0827.8,4.99,000.00,019.1,018.4,000.0,027.5,020.3,10.3,0000.0,0004.31,0007.82,0004.05
2023-11-25 10:59:00,SystemResetWarning,0827.7,5.01,000.00,019.1,018.3,000.0,027.5,020.3,10.3,0000.0,0004.27,0007.74,0004.04
